Find Starlink 1770

NORAD ID: 46383 Int'l Des: 2020-062 Owner: SPXS Country: US Constellation: starlink operational
LEOCIRCULAR

当前视图

正在加载3D地球...

关于 Starlink 1770

正在加载描述...

即将过境

Passes for default location (London). Set your location on the main map for personalized predictions.

高度历史

Loading altitude history...

两行轨道根数

1 46383U 20062BL 26150.53780719 .00098503 00000-0 62598-3 0 9996
2 46383 53.0395 270.9961 0002086 236.5875 123.4944 15.75717259318027
Epoch: May 30, 2026 • Age: 6 hours

当前状态

高度 356.0 km
速度 7.70 km/s
星下点 -42.45°S, 57°E
发射日期 Sep 3, 2020
运行时间 5.7 years
类型 internet

技术详情

分类 Payload
质量 260.00 kg
干质量 248.00 kg
总质量 260.00 kg
长度 0.20 m
直径 2.80 m
跨度 9.00 m
形状 Box + pan
制造商 SPXS
平台类型 Starlink
阶段状态 In Orbit
所有者/国家 SPXS/US

Most Searched